,,,PA_Meas_PMT16A,,PR_Meas_QMR101_102,,RH_Meas_QMH101,,SR_Meas_QMS101,,TA_Meas_QMH101,,GenWind,,GenWind,
date,time,status,PA,status,PR,status,RH,status,SR,status,TA,status,DirAvg,status,SpdAvg,
2010-07-25, 00:00:04,VALID,1008.61,VALID,0,VALID,102.231,VALID,0,VALID,23.7525,VALID,108,VALID,1.36367,
2010-07-25, 00:01:04,VALID,1008.61,VALID,0,VALID,102.261,VALID,0,VALID,23.7348,VALID,98,VALID,2.41797,
2010-07-25, 00:02:04,VALID,1008.62,VALID,0,VALID,102.2,VALID,0,VALID,23.7135,VALID,108,VALID,1.58477,
2010-07-25, 00:03:04,VALID,1008.59,VALID,0,VALID,102.185,VALID,0,VALID,23.7153,VALID,125,VALID,1.77891,
2010-07-25, 00:04:04,VALID,1008.6,VALID,0,VALID,102.185,VALID,0,VALID,23.7135,VALID,99,VALID,1.31172,
2010-07-25, 00:05:04,VALID,1008.56,VALID,0,VALID,102.246,VALID,0,VALID,23.694,VALID,111,VALID,1.05352,
2010-07-25, 00:06:04,VALID,1008.58,VALID,0,VALID,102.284,VALID,0,VALID,23.694,VALID,105,VALID,1.35742,
2010-07-25, 00:07:04,VALID,1008.56,VALID,0,VALID,102.33,VALID,0,VALID,23.694,VALID,113,VALID,1.10625,
2010-07-25, 00:08:04,VALID,1008.56,VALID,0,VALID,102.353,VALID,0,VALID,23.694,VALID,109,VALID,1.03867,
2010-07-25, 00:09:04,VALID,1008.56,VALID,0,VALID,102.315,VALID,0,VALID,23.6745,VALID,92,VALID,2.23477,
2010-07-25, 00:10:04,VALID,1008.53,VALID,0,VALID,102.299,VALID,0,VALID,23.6745,VALID,102,VALID,1.5043,
2010-07-25, 00:11:04,VALID,1008.51,VALID,0,VALID,102.33,VALID,0,VALID,23.655,VALID,107,VALID,1.2625,
2010-07-25, 00:12:04,VALID,1008.5,VALID,0,VALID,102.315,VALID,0,VALID,23.6356,VALID,125,VALID,1.16992,
2010-07-25, 00:13:04,VALID,1008.49,VALID,0,VALID,102.33,VALID,0,VALID,23.6356,VALID,110,VALID,0.901953,
2010-07-25, 00:14:04,VALID,1008.47,VALID,0,VALID,102.376,VALID,0,VALID,23.655,VALID,102,VALID,1.0875,
2010-07-25, 00:15:04,VALID,1008.46,VALID,0,VALID,102.414,VALID,0,VALID,23.6161,VALID,117,VALID,1.48828,
2010-07-25, 00:16:04,VALID,1008.43,VALID,0,VALID,102.391,VALID,0,VALID,23.6161,VALID,122,VALID,1.4457,
2010-07-25, 00:17:04,VALID,1008.41,VALID,0,VALID,102.391,VALID,0,VALID,23.6161,VALID,114,VALID,1.52852,
2010-07-25, 00:18:04,VALID,1008.41,VALID,0,VALID,102.353,VALID,0,VALID,23.6161,VALID,121,VALID,1.5418,
2010-07-25, 00:19:04,VALID,1008.4,VALID,0,VALID,102.36,VALID,0,VALID,23.5948,VALID,113,VALID,1.28516,
2010-07-25, 00:20:04,VALID,1008.35,VALID,0,VALID,102.277,VALID,0.105969,VALID,23.5753,VALID,107,VALID,1.47383,
2010-07-25, 00:21:04,VALID,1008.36,VALID,0,VALID,102.277,VALID,0,VALID,23.5558,VALID,102,VALID,1.50234,
2010-07-25, 00:22:04,VALID,1008.35,VALID,0,VALID,102.269,VALID,0.105969,VALID,23.5753,VALID,98,VALID,1.79102,
2010-07-25, 00:23:04,VALID,1008.33,VALID,0,VALID,102.238,VALID,0.105969,VALID,23.5558,VALID,120,VALID,1.83555,
2010-07-25, 00:24:04,VALID,1008.33,VALID,0,VALID,102.315,VALID,0.105969,VALID,23.5753,VALID,91,VALID,1.15625,
2010-07-25, 00:25:04,VALID,1008.3,VALID,0,VALID,102.338,VALID,0,VALID,23.5558,VALID,81,VALID,1.27578,
2010-07-25, 00:26:04,VALID,1008.27,VALID,0,VALID,102.33,VALID,0.105969,VALID,23.5363,VALID,92,VALID,1.49961,
2010-07-25, 00:27:04,VALID,1008.27,VALID,0,VALID,102.33,VALID,0,VALID,23.5558,VALID,112,VALID,1.73555,
2010-07-25, 00:28:04,VALID,1008.22,VALID,0,VALID,102.345,VALID,0.105969,VALID,23.5363,VALID,110,VALID,1.28789,
2010-07-25, 00:29:04,VALID,1008.18,VALID,0,VALID,102.353,VALID,0.105969,VALID,23.5363,VALID,99,VALID,1.06094,
2010-07-25, 00:30:04,VALID,1008.19,VALID,0,VALID,102.406,VALID,0.105969,VALID,23.5169,VALID,118,VALID,1.15156,
2010-07-25, 00:31:04,VALID,1008.18,VALID,0,VALID,102.414,VALID,0.105969,VALID,23.5169,VALID,113,VALID,0.680859,
2010-07-25, 00:32:04,VALID,1008.19,VALID,0,VALID,102.429,VALID,0.105969,VALID,23.4974,VALID,99,VALID,1.08945,
2010-07-25, 00:33:04,VALID,1008.18,VALID,0,VALID,102.429,VALID,0.105969,VALID,23.4974,VALID,86,VALID,1.14219,
2010-07-25, 00:34:04,VALID,1008.13,VALID,0,VALID,102.482,VALID,0,VALID,23.5186,VALID,127,VALID,1.09883,
2010-07-25, 00:35:04,VALID,1008.13,VALID,0,VALID,102.482,VALID,0,VALID,23.4992,VALID,91,VALID,1.05664,
2010-07-25, 00:36:04,VALID,1008.1,VALID,0,VALID,102.467,VALID,0,VALID,23.4797,VALID,70,VALID,1.39648,
2010-07-25, 00:37:04,VALID,1008.08,VALID,0,VALID,102.406,VALID,0,VALID,23.4602,VALID,90,VALID,1.08203,
2010-07-25, 00:38:04,VALID,1008.05,VALID,0,VALID,102.383,VALID,0,VALID,23.4602,VALID,82,VALID,1.02773,
2010-07-25, 00:39:04,VALID,1008.03,VALID,0,VALID,102.421,VALID,0,VALID,23.4407,VALID,99,VALID,1.05664,
2010-07-25, 00:40:04,VALID,1008,VALID,0,VALID,102.429,VALID,0,VALID,23.4212,VALID,77,VALID,1.08242,
2010-07-25, 00:41:04,VALID,1008.03,VALID,0,VALID,102.414,VALID,0,VALID,23.4407,VALID,85,VALID,0.937109,
2010-07-25, 00:42:04,VALID,1008.02,VALID,0,VALID,102.46,VALID,0,VALID,23.4407,VALID,113,VALID,0.681641,
2010-07-25, 00:43:04,VALID,1007.98,VALID,0,VALID,102.46,VALID,0,VALID,23.4407,VALID,90,VALID,0.589453,
2010-07-25, 00:44:04,VALID,1007.97,VALID,0,VALID,102.498,VALID,0,VALID,23.4407,VALID,84,VALID,0.389062,
2010-07-25, 00:45:04,VALID,1007.97,VALID,0,VALID,102.528,VALID,0,VALID,23.4407,VALID,126,VALID,1.44961,
2010-07-25, 00:46:04,VALID,1007.96,VALID,0,VALID,102.49,VALID,0,VALID,23.4212,VALID,113,VALID,1.13281,
2010-07-25, 00:47:04,VALID,1007.94,VALID,0,VALID,102.46,VALID,0,VALID,23.4,VALID,86,VALID,0.880078,
2010-07-25, 00:48:04,VALID,1007.91,VALID,0,VALID,102.437,VALID,0,VALID,23.4017,VALID,113,VALID,0.694531,
2010-07-25, 00:49:04,VALID,1007.89,VALID,0,VALID,102.368,VALID,0,VALID,23.4017,VALID,123,VALID,1.90117,
2010-07-25, 00:50:04,VALID,1007.84,VALID,0,VALID,102.231,VALID,0,VALID,23.3823,VALID,115,VALID,0.711328,
2010-07-25, 00:51:04,VALID,1007.82,VALID,0,VALID,102.185,VALID,0,VALID,23.3823,VALID,102,VALID,0.862109,
2010-07-25, 00:52:04,VALID,1007.81,VALID,0,VALID,102.177,VALID,0,VALID,23.3823,VALID,110,VALID,0.809375,
2010-07-25, 00:53:04,VALID,1007.78,VALID,0,VALID,102.223,VALID,0,VALID,23.3823,VALID,142,VALID,1.21172,
2010-07-25, 00:54:04,VALID,1007.77,VALID,0,VALID,102.162,VALID,0,VALID,23.3433,VALID,131,VALID,1.11758,
2010-07-25, 00:55:04,VALID,1007.75,VALID,0,VALID,102.071,VALID,0,VALID,23.3433,VALID,95,VALID,0.479297,
2010-07-25, 00:56:04,VALID,1007.74,VALID,0,VALID,102.055,VALID,0,VALID,23.3628,VALID,121,VALID,1.21211,
2010-07-25, 00:57:04,VALID,1007.73,VALID,0,VALID,102.002,VALID,0,VALID,23.3433,VALID,127,VALID,1.18711,
2010-07-25, 00:58:04,VALID,1007.69,VALID,0,VALID,101.979,VALID,0,VALID,23.3433,VALID,115,VALID,1.25781,
2010-07-25, 00:59:04,VALID,1007.69,VALID,0,VALID,101.964,VALID,0,VALID,23.3645,VALID,98,VALID,1.59922,
2010-07-25, 01:00:04,VALID,1007.69,VALID,0,VALID,101.964,VALID,0,VALID,23.3433,VALID,103,VALID,1.41562,
2010-07-25, 01:01:04,VALID,1007.69,VALID,0,VALID,101.895,VALID,0,VALID,23.3238,VALID,108,VALID,1.22461,
2010-07-25, 01:02:04,VALID,1007.64,VALID,0,VALID,101.933,VALID,0,VALID,23.3433,VALID,121,VALID,0.686719,
2010-07-25, 01:03:04,VALID,1007.64,VALID,0,VALID,102.04,VALID,0,VALID,23.3451,VALID,113,VALID,0.780078,
2010-07-25, 01:04:04,VALID,1007.56,VALID,0,VALID,102.086,VALID,0,VALID,23.3238,VALID,134,VALID,1.20117,
2010-07-25, 01:05:04,VALID,1007.54,VALID,0,VALID,101.972,VALID,0,VALID,23.3043,VALID,90,VALID,0.946094,
2010-07-25, 01:06:04,VALID,1007.49,VALID,0,VALID,101.903,VALID,0,VALID,23.2831,VALID,121,VALID,1.14336,
2010-07-25, 01:07:04,VALID,1007.46,VALID,0,VALID,101.888,VALID,0,VALID,23.3043,VALID,126,VALID,0.703125,
2010-07-25, 01:08:04,VALID,1007.4,VALID,0,VALID,101.895,VALID,0,VALID,23.3256,VALID,134,VALID,1.25781,
2010-07-25, 01:09:04,VALID,1007.41,VALID,0,VALID,101.773,VALID,0,VALID,23.3043,VALID,123,VALID,0.623438,
2010-07-25, 01:10:04,VALID,1007.37,VALID,0,VALID,101.773,VALID,0,VALID,23.2866,VALID,151,VALID,0.763281,
2010-07-25, 01:11:04,VALID,1007.36,VALID,0,VALID,101.735,VALID,0,VALID,23.2459,VALID,145,VALID,0.975,
2010-07-25, 01:12:04,VALID,1007.33,VALID,0,VALID,101.766,VALID,0,VALID,23.2459,VALID,137,VALID,0.896875,
2010-07-25, 01:13:04,VALID,1007.36,VALID,0,VALID,101.895,VALID,0,VALID,23.2264,VALID,136,VALID,0.692578,
2010-07-25, 01:14:04,VALID,1007.36,VALID,0,VALID,101.956,VALID,0,VALID,23.2069,VALID,134,VALID,1.04336,
2010-07-25, 01:15:04,VALID,1007.36,VALID,0,VALID,101.972,VALID,0,VALID,23.2476,VALID,97,VALID,0.59375,
2010-07-25, 01:16:04,VALID,1007.34,VALID,0,VALID,102.071,VALID,0,VALID,23.2264,VALID,114,VALID,0.564062,
2010-07-25, 01:17:04,VALID,1007.35,VALID,0,VALID,102.162,VALID,0,VALID,23.2069,VALID,106,VALID,0.772266,
2010-07-25, 01:18:04,VALID,1007.34,VALID,0,VALID,102.155,VALID,0,VALID,23.2069,VALID,107,VALID,0.353125,
2010-07-25, 01:19:04,VALID,1007.31,VALID,0,VALID,102.17,VALID,0,VALID,23.2051,VALID,131,VALID,0.373047,
2010-07-25, 01:20:04,VALID,1007.31,VALID,0,VALID,102.238,VALID,0,VALID,23.2069,VALID,131,VALID,0.885938,
2010-07-25, 01:21:04,VALID,1007.31,VALID,0,VALID,102.2,VALID,0,VALID,23.2069,VALID,131,VALID,0.239063,
2010-07-25, 01:22:04,VALID,1007.31,VALID,0,VALID,102.238,VALID,0,VALID,23.2264,VALID,148,VALID,0.484375,
2010-07-25, 01:23:04,VALID,1007.32,VALID,0,VALID,102.284,VALID,0,VALID,23.2264,VALID,149,VALID,0.123828,
2010-07-25, 01:24:04,VALID,1007.29,VALID,0,VALID,102.299,VALID,0,VALID,23.1874,VALID,116,VALID,0.780078,
2010-07-25, 01:25:04,VALID,1007.31,VALID,0,VALID,102.216,VALID,0,VALID,23.2069,VALID,95,VALID,0.3,
2010-07-25, 01:26:04,VALID,1007.29,VALID,0,VALID,102.193,VALID,0,VALID,23.1874,VALID,68,VALID,0.496094,
2010-07-25, 01:27:04,VALID,1007.33,VALID,0,VALID,102.155,VALID,0,VALID,23.1874,VALID,4,VALID,0.477734,
2010-07-25, 01:28:04,VALID,1007.29,VALID,0,VALID,102.124,VALID,0,VALID,23.1874,VALID,6,VALID,0.586328,
2010-07-25, 01:29:04,VALID,1007.31,VALID,0,VALID,102.109,VALID,0,VALID,23.1679,VALID,29,VALID,0.494922,
2010-07-25, 01:30:04,VALID,1007.29,VALID,0,VALID,102.033,VALID,0,VALID,23.129,VALID,25,VALID,0.799219,
2010-07-25, 01:31:04,VALID,1007.29,VALID,0,VALID,102.025,VALID,0,VALID,23.129,VALID,4,VALID,0.583203,
2010-07-25, 01:32:04,VALID,1007.32,VALID,0,VALID,102.033,VALID,0,VALID,23.1307,VALID,7,VALID,0.148438,
2010-07-25, 01:33:04,VALID,1007.34,VALID,0,VALID,102.086,VALID,0,VALID,23.1095,VALID,7,VALID,0.126172,
2010-07-25, 01:34:04,VALID,1007.31,VALID,0,VALID,102.147,VALID,0,VALID,23.0705,VALID,73,VALID,0.554688,
2010-07-25, 01:35:04,VALID,1007.32,VALID,0,VALID,102.216,VALID,0,VALID,23.0705,VALID,73,VALID,0.0652344,
2010-07-25, 01:36:04,VALID,1007.3,VALID,0,VALID,102.307,VALID,0,VALID,23.0918,VALID,73,VALID,0.235156,
2010-07-25, 01:37:04,VALID,1007.29,VALID,0,VALID,102.269,VALID,0,VALID,23.0121,VALID,70,VALID,0.189844,
2010-07-25, 01:38:04,VALID,1007.32,VALID,0,VALID,102.277,VALID,0,VALID,23.0121,VALID,24,VALID,0.358203,
2010-07-25, 01:39:04,VALID,1007.29,VALID,0,VALID,102.284,VALID,0,VALID,23.0316,VALID,25,VALID,0,
2010-07-25, 01:40:04,VALID,1007.29,VALID,0,VALID,102.338,VALID,0,VALID,23.0121,VALID,25,VALID,0,
2010-07-25, 01:41:04,VALID,1007.29,VALID,0,VALID,102.383,VALID,0,VALID,23.0121,VALID,25,VALID,0.00546875,
2010-07-25, 01:42:04,VALID,1007.31,VALID,0,VALID,102.383,VALID,0,VALID,23.0121,VALID,25,VALID,0.457812,
2010-07-25, 01:43:04,VALID,1007.27,VALID,0,VALID,102.399,VALID,0,VALID,23.0316,VALID,56,VALID,0.468359,
2010-07-25, 01:44:04,VALID,1007.28,VALID,0,VALID,102.421,VALID,0,VALID,23.0316,VALID,56,VALID,0,
2010-07-25, 01:45:04,VALID,1007.29,VALID,0,VALID,102.475,VALID,0,VALID,23.0316,VALID,55,VALID,0,
2010-07-25, 01:46:04,VALID,1007.28,VALID,0,VALID,102.49,VALID,0,VALID,23.0316,VALID,55,VALID,0,
2010-07-25, 01:47:04,VALID,1007.27,VALID,0,VALID,102.513,VALID,0,VALID,23.0316,VALID,55,VALID,0,
2010-07-25, 01:48:04,VALID,1007.24,VALID,0,VALID,102.544,VALID,0,VALID,23.0121,VALID,55,VALID,0,
2010-07-25, 01:49:04,VALID,1007.21,VALID,0,VALID,102.566,VALID,0,VALID,23.0103,VALID,55,VALID,0,
2010-07-25, 01:50:04,VALID,1007.17,VALID,0,VALID,102.582,VALID,0,VALID,23.0121,VALID,55,VALID,0,
2010-07-25, 01:51:04,VALID,1007.15,VALID,0,VALID,102.574,VALID,0,VALID,22.9926,VALID,55,VALID,0,
2010-07-25, 01:52:04,VALID,1007.13,VALID,0,VALID,102.551,VALID,0,VALID,22.9536,VALID,96,VALID,0.327734,
2010-07-25, 01:53:04,VALID,1007.09,VALID,0,VALID,102.528,VALID,0,VALID,22.9536,VALID,66,VALID,0.488281,
2010-07-25, 01:54:04,VALID,1007.08,VALID,0,VALID,102.536,VALID,0,VALID,22.9536,VALID,66,VALID,0,
2010-07-25, 01:55:04,VALID,1007.06,VALID,0,VALID,102.521,VALID,0,VALID,22.9536,VALID,66,VALID,0.268359,
2010-07-25, 01:56:04,VALID,1007.05,VALID,0,VALID,102.528,VALID,0,VALID,22.9342,VALID,66,VALID,0.210156,
2010-07-25, 01:57:04,VALID,1007.06,VALID,0,VALID,102.544,VALID,0,VALID,22.9342,VALID,58,VALID,0.470313,
2010-07-25, 01:58:04,VALID,1007.01,VALID,0,VALID,102.566,VALID,0,VALID,22.9342,VALID,55,VALID,0.388281,
2010-07-25, 01:59:04,VALID,1007.02,VALID,0,VALID,102.551,VALID,0,VALID,22.9147,VALID,55,VALID,0.0195313,
2010-07-25, 02:00:04,VALID,1007.03,VALID,0,VALID,102.559,VALID,0,VALID,22.9147,VALID,55,VALID,0.682813,
2010-07-25, 02:01:04,VALID,1007.03,VALID,0,VALID,102.544,VALID,0,VALID,22.9147,VALID,72,VALID,0.749609,
2010-07-25, 02:02:04,VALID,1007.03,VALID,0,VALID,102.551,VALID,0,VALID,22.9147,VALID,68,VALID,0.496484,
2010-07-25, 02:03:04,VALID,1007.01,VALID,0,VALID,102.528,VALID,0,VALID,22.8952,VALID,70,VALID,0.677734,
2010-07-25, 02:04:04,VALID,1006.96,VALID,0,VALID,102.49,VALID,0.105969,VALID,22.8952,VALID,63,VALID,0.814062,
2010-07-25, 02:05:04,VALID,1006.96,VALID,0,VALID,102.467,VALID,0,VALID,22.8952,VALID,69,VALID,0.786328,
2010-07-25, 02:06:04,VALID,1006.94,VALID,0,VALID,102.467,VALID,0,VALID,22.874,VALID,75,VALID,0.677344,
2010-07-25, 02:07:04,VALID,1006.96,VALID,0,VALID,102.49,VALID,0,VALID,22.8952,VALID,74,VALID,0.396094,
2010-07-25, 02:08:04,VALID,1006.92,VALID,0,VALID,102.505,VALID,0,VALID,22.8952,VALID,47,VALID,0.733203,
2010-07-25, 02:09:04,VALID,1006.91,VALID,0,VALID,102.513,VALID,0,VALID,22.8757,VALID,81,VALID,0.703516,
2010-07-25, 02:10:04,VALID,1006.89,VALID,0,VALID,102.536,VALID,0.105969,VALID,22.8562,VALID,67,VALID,0.246875,
2010-07-25, 02:11:04,VALID,1006.88,VALID,0,VALID,102.521,VALID,0,VALID,22.8562,VALID,75,VALID,0.632813,
2010-07-25, 02:12:04,VALID,1006.84,VALID,0,VALID,102.513,VALID,0,VALID,22.8562,VALID,67,VALID,0.594922,
2010-07-25, 02:13:04,VALID,1006.81,VALID,0,VALID,102.536,VALID,0,VALID,22.8562,VALID,67,VALID,0.251953,
2010-07-25, 02:14:04,VALID,1006.81,VALID,0,VALID,102.544,VALID,0,VALID,22.8368,VALID,67,VALID,0.31875,
2010-07-25, 02:15:04,VALID,1006.81,VALID,0,VALID,102.582,VALID,0,VALID,22.8155,VALID,61,VALID,0.295312,
2010-07-25, 02:16:04,VALID,1006.77,VALID,0,VALID,102.589,VALID,0,VALID,22.8173,VALID,23,VALID,0.496484,
2010-07-25, 02:17:04,VALID,1006.75,VALID,0,VALID,102.612,VALID,0,VALID,22.819,VALID,23,VALID,0.417969,
2010-07-25, 02:18:04,VALID,1006.73,VALID,0,VALID,102.643,VALID,0,VALID,22.7978,VALID,23,VALID,0.21875,
2010-07-25, 02:19:04,VALID,1006.7,VALID,0,VALID,102.65,VALID,0,VALID,22.7978,VALID,23,VALID,0.452344,
2010-07-25, 02:20:04,VALID,1006.67,VALID,0,VALID,102.673,VALID,0,VALID,22.7783,VALID,23,VALID,0.361719,
2010-07-25, 02:21:04,VALID,1006.63,VALID,0,VALID,102.711,VALID,0,VALID,22.7783,VALID,68,VALID,0.577344,
2010-07-25, 02:22:04,VALID,1006.63,VALID,0,VALID,102.742,VALID,0,VALID,22.7783,VALID,68,VALID,0.521484,
2010-07-25, 02:23:04,VALID,1006.6,VALID,0,VALID,102.719,VALID,0,VALID,22.7783,VALID,65,VALID,0.482812,
2010-07-25, 02:24:04,VALID,1006.58,VALID,0,VALID,102.749,VALID,0,VALID,22.7588,VALID,73,VALID,0.555078,
2010-07-25, 02:25:04,VALID,1006.53,VALID,0,VALID,102.742,VALID,0,VALID,22.7394,VALID,95,VALID,0.723828,
2010-07-25, 02:26:04,VALID,1006.48,VALID,0,VALID,102.719,VALID,0,VALID,22.7394,VALID,86,VALID,0.486328,
2010-07-25, 02:27:04,VALID,1006.5,VALID,0,VALID,102.696,VALID,0,VALID,22.7588,VALID,56,VALID,0.403125,
2010-07-25, 02:28:04,VALID,1006.49,VALID,0,VALID,102.688,VALID,0,VALID,22.7783,VALID,55,VALID,0.457031,
2010-07-25, 02:29:04,VALID,1006.51,VALID,0,VALID,102.696,VALID,0,VALID,22.7588,VALID,70,VALID,0.899609,
2010-07-25, 02:30:04,VALID,1006.46,VALID,0,VALID,102.635,VALID,0,VALID,22.7588,VALID,78,VALID,0.75625,
2010-07-25, 02:31:04,VALID,1006.44,VALID,0,VALID,102.589,VALID,0,VALID,22.7783,VALID,69,VALID,0.475,
2010-07-25, 02:32:04,VALID,1006.41,VALID,0,VALID,102.528,VALID,0,VALID,22.7783,VALID,65,VALID,0.784375,
2010-07-25, 02:33:04,VALID,1006.39,VALID,0,VALID,102.498,VALID,0,VALID,22.7588,VALID,80,VALID,0.637109,
2010-07-25, 02:34:04,VALID,1006.36,VALID,0,VALID,102.513,VALID,0,VALID,22.7588,VALID,101,VALID,1.0832,
2010-07-25, 02:35:04,VALID,1006.35,VALID,0,VALID,102.429,VALID,0,VALID,22.7783,VALID,102,VALID,0.954687,
2010-07-25, 02:36:04,VALID,1006.32,VALID,0,VALID,102.368,VALID,0,VALID,22.7783,VALID,93,VALID,0.928906,
2010-07-25, 02:37:04,VALID,1006.3,VALID,0,VALID,102.2,VALID,0,VALID,22.7588,VALID,86,VALID,1.49219,
2010-07-25, 02:38:04,VALID,1006.3,VALID,0,VALID,102.025,VALID,0,VALID,22.7978,VALID,80,VALID,0.897656,
2010-07-25, 02:39:04,VALID,1006.26,VALID,0,VALID,101.804,VALID,0,VALID,22.7783,VALID,91,VALID,1.6875,
2010-07-25, 02:40:04,VALID,1006.28,VALID,0,VALID,101.667,VALID,0,VALID,22.7978,VALID,94,VALID,1.23945,
2010-07-25, 02:41:04,VALID,1006.24,VALID,0,VALID,101.59,VALID,0,VALID,22.7978,VALID,56,VALID,0.813281,
2010-07-25, 02:42:04,VALID,1006.25,VALID,0,VALID,101.514,VALID,0,VALID,22.7783,VALID,82,VALID,1.44961,
2010-07-25, 02:43:04,VALID,1006.23,VALID,0,VALID,101.331,VALID,0,VALID,22.7766,VALID,82,VALID,1.28164,
2010-07-25, 02:44:04,VALID,1006.23,VALID,0,VALID,101.323,VALID,0,VALID,22.7783,VALID,93,VALID,1.48086,
2010-07-25, 02:45:04,VALID,1006.22,VALID,0,VALID,101.262,VALID,0,VALID,22.7978,VALID,80,VALID,1.19883,
2010-07-25, 02:46:04,VALID,1006.19,VALID,0,VALID,101.217,VALID,0,VALID,22.7783,VALID,98,VALID,1.16289,
2010-07-25, 02:47:04,VALID,1006.16,VALID,0,VALID,101.278,VALID,0,VALID,22.7783,VALID,104,VALID,1.05703,
2010-07-25, 02:48:04,VALID,1006.14,VALID,0,VALID,101.362,VALID,0,VALID,22.7783,VALID,95,VALID,1.14453,
2010-07-25, 02:49:04,VALID,1006.13,VALID,0,VALID,101.27,VALID,0,VALID,22.7995,VALID,93,VALID,1.16133,
2010-07-25, 02:50:04,VALID,1006.13,VALID,0,VALID,101.4,VALID,0,VALID,22.7978,VALID,82,VALID,0.952344,
2010-07-25, 02:51:04,VALID,1006.15,VALID,0,VALID,101.537,VALID,0,VALID,22.7978,VALID,58,VALID,1.00078,
2010-07-25, 02:52:04,VALID,1006.19,VALID,0,VALID,101.476,VALID,0,VALID,22.7588,VALID,54,VALID,1.25195,
2010-07-25, 02:53:04,VALID,1006.19,VALID,0,VALID,101.445,VALID,0,VALID,22.7588,VALID,57,VALID,0.930078,
2010-07-25, 02:54:04,VALID,1006.18,VALID,0,VALID,101.514,VALID,0,VALID,22.7199,VALID,37,VALID,0.539453,
2010-07-25, 02:55:04,VALID,1006.17,VALID,0,VALID,101.606,VALID,0,VALID,22.6792,VALID,60,VALID,1.53047,
2010-07-25, 02:56:04,VALID,1006.19,VALID,0,VALID,101.705,VALID,0,VALID,22.6809,VALID,87,VALID,0.926953,
2010-07-25, 02:57:04,VALID,1006.16,VALID,0,VALID,101.781,VALID,0,VALID,22.6614,VALID,76,VALID,1.6625,
2010-07-25, 02:58:04,VALID,1006.17,VALID,0,VALID,101.811,VALID,0,VALID,22.642,VALID,101,VALID,0.897656,
2010-07-25, 02:59:04,VALID,1006.16,VALID,0,VALID,101.903,VALID,0,VALID,22.6402,VALID,81,VALID,0.669922,
2010-07-25, 03:00:04,VALID,1006.16,VALID,0,VALID,101.972,VALID,0,VALID,22.6402,VALID,59,VALID,1.01758,
2010-07-25, 03:01:04,VALID,1006.17,VALID,0,VALID,102.017,VALID,0,VALID,22.6614,VALID,40,VALID,0.734766,
2010-07-25, 03:02:04,VALID,1006.16,VALID,0,VALID,102.025,VALID,0,VALID,22.6614,VALID,68,VALID,0.405078,
2010-07-25, 03:03:04,VALID,1006.15,VALID,0,VALID,101.994,VALID,0,VALID,22.6614,VALID,78,VALID,1.29023,
2010-07-25, 03:04:04,VALID,1006.17,VALID,0,VALID,101.933,VALID,0,VALID,22.6614,VALID,78,VALID,1.12617,
2010-07-25, 03:05:04,VALID,1006.19,VALID,0,VALID,101.888,VALID,0,VALID,22.642,VALID,74,VALID,0.946484,
2010-07-25, 03:06:04,VALID,1006.17,VALID,0,VALID,101.865,VALID,0,VALID,22.642,VALID,86,VALID,0.446094,
2010-07-25, 03:07:04,VALID,1006.15,VALID,0,VALID,101.857,VALID,0,VALID,22.6614,VALID,86,VALID,0.586328,
2010-07-25, 03:08:04,VALID,1006.18,VALID,0,VALID,101.933,VALID,0,VALID,22.6614,VALID,82,VALID,0.649609,
2010-07-25, 03:09:04,VALID,1006.18,VALID,0,VALID,102.01,VALID,0,VALID,22.6614,VALID,80,VALID,0.607813,
2010-07-25, 03:10:04,VALID,1006.21,VALID,0,VALID,102.055,VALID,0,VALID,22.6614,VALID,101,VALID,0.784766,
2010-07-25, 03:11:04,VALID,1006.2,VALID,0,VALID,102.094,VALID,0,VALID,22.6614,VALID,91,VALID,0.723047,
2010-07-25, 03:12:04,VALID,1006.21,VALID,0,VALID,102.078,VALID,0,VALID,22.642,VALID,93,VALID,1.07031,
2010-07-25, 03:13:04,VALID,1006.2,VALID,0,VALID,102.094,VALID,0,VALID,22.6826,VALID,91,VALID,0.650781,
2010-07-25, 03:14:04,VALID,1006.18,VALID,0,VALID,102.055,VALID,0,VALID,22.6614,VALID,88,VALID,1.41836,
2010-07-25, 03:15:04,VALID,1006.19,VALID,0,VALID,101.85,VALID,0,VALID,22.6614,VALID,83,VALID,1.0832,
2010-07-25, 03:16:04,VALID,1006.16,VALID,0,VALID,101.804,VALID,0,VALID,22.6809,VALID,94,VALID,1.47227,
2010-07-25, 03:17:04,VALID,1006.16,VALID,0,VALID,101.659,VALID,0,VALID,22.642,VALID,78,VALID,1.2207,
2010-07-25, 03:18:04,VALID,1006.17,VALID,0,VALID,101.644,VALID,0,VALID,22.6826,VALID,87,VALID,0.943359,
2010-07-25, 03:19:04,VALID,1006.16,VALID,0,VALID,101.567,VALID,0,VALID,22.642,VALID,82,VALID,0.917578,
2010-07-25, 03:20:04,VALID,1006.15,VALID,0,VALID,101.628,VALID,0,VALID,22.642,VALID,45,VALID,0.346094,
2010-07-25, 03:21:04,VALID,1006.17,VALID,0,VALID,101.667,VALID,0,VALID,22.6225,VALID,38,VALID,0.805078,
2010-07-25, 03:22:04,VALID,1006.15,VALID,0,VALID,101.651,VALID,0,VALID,22.6242,VALID,76,VALID,0.788281,
2010-07-25, 03:23:04,VALID,1006.19,VALID,0,VALID,101.667,VALID,0,VALID,22.5835,VALID,72,VALID,0.912891,
2010-07-25, 03:24:04,VALID,1006.19,VALID,0,VALID,101.75,VALID,0,VALID,22.5835,VALID,81,VALID,0.542969,
2010-07-25, 03:25:04,VALID,1006.2,VALID,0,VALID,101.804,VALID,0,VALID,22.5835,VALID,64,VALID,0.501953,
2010-07-25, 03:26:04,VALID,1006.18,VALID,0,VALID,101.85,VALID,0,VALID,22.564,VALID,65,VALID,0.783594,
2010-07-25, 03:27:04,VALID,1006.19,VALID,0,VALID,101.895,VALID,0,VALID,22.564,VALID,60,VALID,0.366797,
2010-07-25, 03:28:04,VALID,1006.23,VALID,0,VALID,101.987,VALID,0,VALID,22.5835,VALID,60,VALID,0,
2010-07-25, 03:29:04,VALID,1006.23,VALID,0,VALID,102.078,VALID,0,VALID,22.564,VALID,60,VALID,0,
2010-07-25, 03:30:04,VALID,1006.23,VALID,0,VALID,102.147,VALID,0,VALID,22.564,VALID,60,VALID,0.0699219,
2010-07-25, 03:31:04,VALID,1006.26,VALID,0,VALID,102.162,VALID,0,VALID,22.5852,VALID,56,VALID,0.511328,
2010-07-25, 03:32:04,VALID,1006.19,VALID,0,VALID,102.139,VALID,0,VALID,22.564,VALID,55,VALID,0.224219,
2010-07-25, 03:33:04,VALID,1006.25,VALID,0,VALID,102.147,VALID,0,VALID,22.564,VALID,106,VALID,0.319922,
2010-07-25, 03:34:04,VALID,1006.26,VALID,0,VALID,102.124,VALID,0,VALID,22.564,VALID,109,VALID,0.557813,
2010-07-25, 03:35:04,VALID,1006.29,VALID,0,VALID,102.078,VALID,0,VALID,22.5835,VALID,109,VALID,0.565234,
2010-07-25, 03:36:04,VALID,1006.28,VALID,0,VALID,102.048,VALID,0,VALID,22.5835,VALID,82,VALID,0.582422,
2010-07-25, 03:37:04,VALID,1006.28,VALID,0,VALID,101.964,VALID,0,VALID,22.5835,VALID,82,VALID,0.475391,
2010-07-25, 03:38:04,VALID,1006.29,VALID,0,VALID,101.888,VALID,0,VALID,22.603,VALID,82,VALID,0.358594,
2010-07-25, 03:39:04,VALID,1006.3,VALID,0,VALID,101.85,VALID,0,VALID,22.603,VALID,82,VALID,0,
2010-07-25, 03:40:04,VALID,1006.33,VALID,0,VALID,101.857,VALID,0,VALID,22.603,VALID,81,VALID,0.295312,
2010-07-25, 03:41:04,VALID,1006.33,VALID,0,VALID,101.918,VALID,0,VALID,22.603,VALID,81,VALID,0.228516,
2010-07-25, 03:42:04,VALID,1006.35,VALID,0,VALID,102.002,VALID,0,VALID,22.603,VALID,81,VALID,0.26875,
2010-07-25, 03:43:04,VALID,1006.4,VALID,0,VALID,102.063,VALID,0,VALID,22.5835,VALID,81,VALID,0.282813,
2010-07-25, 03:44:04,VALID,1006.41,VALID,0,VALID,102.124,VALID,0,VALID,22.603,VALID,81,VALID,0.165625,
2010-07-25, 03:45:04,VALID,1006.41,VALID,0,VALID,102.139,VALID,0,VALID,22.5835,VALID,80,VALID,0.313672,
2010-07-25, 03:46:04,VALID,1006.44,VALID,0,VALID,102.101,VALID,0,VALID,22.5835,VALID,75,VALID,0.446875,